Terug naar catalogus

STARLINK-37759

ActiefCommunicatieSSO
NORAD 69223·PAYLOAD·🇺🇸 United States

Gelanceerd May 26, 2026 vanaf Vandenberg Space Force Base

Loading…

Volgende Passages (komende 24 uur)

TLE

VersSource: CelesTrak SupGP

Epoch: Sep 14, 2026, 21:15 UTC

1 69223C 26115N   26257.88590278  .00036299  00000+0  11270-2 0  2574
2 69223  97.2837 274.0668 0001270  91.4234 153.1547 15.33413962    10

Volg STARLINK-37759 in realtime met AllMySat

Download on the App Store